| time (UTC) | temp C | wind direction | speed KPH | gust KPH | rain 1hr cm | rain 24hr cm | rain mn cm | humidity % | barometer mb |
| 20260507083356 | 21 | 228 | 1.6 | 8.0 | 0.00 | 0.51 | 0.13 | 56 | 1015.0 |
| 20260507082846 | 21 | 233 | 3.2 | 14.5 | 0.00 | 0.51 | 0.13 | 57 | 1014.8 |
| 20260507082331 | 21 | 220 | 3.2 | 14.5 | 0.00 | 0.51 | 0.13 | 57 | 1014.7 |
| 20260507081835 | 21 | 199 | 3.2 | 4.8 | 0.00 | 0.51 | 0.13 | 61 | 1014.6 |
| 20260507081322 | 20 | 137 | 1.6 | 6.4 | 0.00 | 0.51 | 0.13 | 64 | 1014.6 |
| 20260507080833 | 20 | 143 | 3.2 | 6.4 | 0.00 | 0.51 | 0.13 | 63 | 1014.6 |
| 20260507080324 | 20 | 184 | 1.6 | 4.8 | 0.00 | 0.51 | 0.13 | 63 | 1014.6 |
| 20260507075833 | 20 | 182 | 0.0 | 4.8 | 0.00 | 0.61 | 0.13 | 66 | 1014.7 |
| 20260507075325 | 19 | 180 | 3.2 | 4.8 | 0.00 | 0.61 | 0.13 | 68 | 1014.7 |
| 20260507074853 | 18 | 189 | 1.6 | 4.8 | 0.00 | 0.61 | 0.13 | 69 | 1014.7 |
| 20260507074322 | 18 | 205 | 1.6 | 9.7 | 0.00 | 0.61 | 0.13 | 68 | 1014.7 |
| 20260507073832 | 18 | 198 | 3.2 | 9.7 | 0.00 | 0.61 | 0.13 | 68 | 1014.7 |
| 20260507073327 | 18 | 205 | 1.6 | 8.0 | 0.00 | 0.61 | 0.13 | 68 | 1014.7 |
| 20260507072838 | 18 | 194 | 3.2 | 9.7 | 0.00 | 0.61 | 0.13 | 67 | 1014.7 |
| 20260507072326 | 18 | 221 | 3.2 | 12.9 | 0.00 | 0.61 | 0.13 | 68 | 1014.7 |
| 20260507071827 | 18 | 217 | 4.8 | 12.9 | 0.00 | 0.61 | 0.13 | 69 | 1014.8 |
| 20260507071337 | 18 | 247 | 1.6 | 12.9 | 0.00 | 0.61 | 0.13 | 71 | 1014.8 |
| 20260507070827 | 18 | 225 | 4.8 | 9.7 | 0.00 | 0.61 | 0.13 | 73 | 1014.8 |
| 20260507070334 | 17 | 205 | 3.2 | 9.7 | 0.00 | 0.61 | 0.13 | 75 | 1014.8 |
| 20260507065825 | 17 | 217 | 3.2 | 9.7 | 0.00 | 0.61 | 0.13 | 78 | 1014.7 |
| 20260507065336 | 17 | 187 | 3.2 | 9.7 | 0.00 | 0.61 | 0.13 | 78 | 1014.7 |
| 20260507064827 | 17 | 159 | 4.8 | 9.7 | 0.00 | 0.61 | 0.13 | 78 | 1014.7 |
| 20260507064338 | 17 | 180 | 3.2 | 9.7 | 0.00 | 0.61 | 0.13 | 79 | 1014.6 |
| 20260507063826 | 17 | 244 | 3.2 | 9.7 | 0.00 | 0.61 | 0.13 | 79 | 1014.6 |
| 20260507063345 | 16 | 232 | 1.6 | 12.9 | 0.00 | 0.61 | 0.13 | 81 | 1014.5 |
| 20260507062828 | 16 | 219 | 3.2 | 12.9 | 0.00 | 0.61 | 0.13 | 83 | 1014.6 |
| 20260507062340 | 16 | 207 | 3.2 | 9.7 | 0.00 | 0.61 | 0.13 | 83 | 1014.6 |
| 20260507061822 | 16 | 211 | 3.2 | 8.0 | 0.00 | 0.61 | 0.13 | 83 | 1014.6 |
| 20260507061333 | 16 | 212 | 3.2 | 9.7 | 0.00 | 0.61 | 0.13 | 83 | 1014.7 |
| 20260507060822 | 16 | 217 | 4.8 | 9.7 | 0.00 | 0.61 | 0.13 | 84 | 1014.7 |
| 20260507060325 | 16 | 193 | 4.8 | 9.7 | 0.00 | 0.61 | 0.13 | 84 | 1014.6 |
| 20260507055835 | 16 | 200 | 4.8 | 8.0 | 0.00 | 0.61 | 0.13 | 84 | 1014.6 |
| 20260507055348 | 16 | 200 | 4.8 | 8.0 | 0.00 | 0.61 | 0.13 | 85 | 1014.6 |
| 20260507054838 | 16 | 193 | 3.2 | 6.4 | 0.00 | 0.61 | 0.13 | 85 | 1014.6 |
| 20260507054324 | 16 | 200 | 3.2 | 6.4 | 0.00 | 0.61 | 0.13 | 86 | 1014.7 |
| 20260507053836 | 16 | 214 | 1.6 | 4.8 | 0.00 | 0.61 | 0.13 | 86 | 1014.6 |
| 20260507053325 | 16 | 210 | 1.6 | 6.4 | 0.00 | 0.61 | 0.13 | 86 | 1014.5 |
| 20260507052834 | 15 | 209 | 1.6 | 8.0 | 0.00 | 0.61 | 0.13 | 87 | 1014.4 |
| 20260507052345 | 15 | 211 | 3.2 | 8.0 | 0.00 | 0.61 | 0.13 | 87 | 1014.3 |
| 20260507051831 | 15 | 204 | 3.2 | 6.4 | 0.00 | 0.61 | 0.13 | 88 | 1014.2 |
| 20260507051340 | 15 | 185 | 3.2 | 6.4 | 0.00 | 0.61 | 0.13 | 88 | 1014.1 |
| 20260507050830 | 15 | 192 | 1.6 | 6.4 | 0.00 | 0.61 | 0.13 | 88 | 1014.2 |
| 20260507050338 | 15 | 200 | 3.2 | 6.4 | 0.00 | 0.61 | 0.13 | 88 | 1014.1 |
| 20260507045850 | 15 | 186 | 3.2 | 6.4 | 0.00 | 0.71 | 0.13 | 89 | 1014.0 |
| 20260507045322 | 15 | 213 | 0.0 | 0.0 | 0.00 | 0.71 | 0.13 | 89 | 1013.9 |
| 20260507044852 | 15 | 214 | 0.0 | 0.0 | 0.00 | 0.71 | 0.13 | 89 | 1013.8 |
| 20260507044359 | 15 | 214 | 0.0 | 0.0 | 0.00 | 0.71 | 0.13 | 89 | 1013.7 |
| 20260507043907 | 15 | 213 | 0.0 | 0.0 | 0.00 | 0.71 | 0.13 | 89 | 1013.5 |
| 20260507043325 | 15 | 214 | 0.0 | 0.0 | 0.00 | 0.71 | 0.13 | 89 | 1013.7 |
| 20260507042845 | 15 | 214 | 0.0 | 0.0 | 0.00 | 0.71 | 0.13 | 89 | 1013.7 |
| 20260507041844 | 15 | 214 | 0.0 | 0.0 | 0.00 | 0.71 | 0.13 | 89 | 1013.7 |
| 20260507041334 | 15 | 214 | 0.0 | 0.0 | 0.00 | 0.71 | 0.13 | 89 | 1013.6 |
| 20260507040850 | 15 | 214 | 0.0 | 0.0 | 0.00 | 0.71 | 0.13 | 89 | 1013.5 |
| 20260507040353 | 15 | 252 | 0.0 | 0.0 | 0.00 | 0.71 | 0.13 | 89 | 1013.5 |
| 20260507035424 | 15 | 252 | 0.0 | 0.0 | 0.00 | 0.71 | 0.13 | 88 | 1013.4 |
| 20260507034843 | 15 | 252 | 0.0 | 0.0 | 0.00 | 0.71 | 0.13 | 88 | 1013.4 |
| 20260507034327 | 15 | 252 | 0.0 | 0.0 | 0.00 | 0.71 | 0.13 | 88 | 1013.4 |
| 20260507033836 | 15 | 252 | 0.0 | 0.0 | 0.00 | 0.71 | 0.13 | 88 | 1013.4 |
| 20260507033327 | 15 | 252 | 0.0 | 0.0 | 0.00 | 0.71 | 0.13 | 88 | 1013.5 |
| 20260507032824 | 16 | 252 | 0.0 | 0.0 | 0.00 | 0.71 | 0.13 | 88 | 1013.5 |
| 20260507031521 | 16 | 253 | 0.0 | 0.0 | 0.00 | 0.71 | 0.13 | 87 | 1013.5 |
| 20260507030407 | 16 | 253 | 0.0 | 0.0 | 0.00 | 0.71 | 0.13 | 87 | 1013.4 |
| 20260507025852 | 16 | 252 | 0.0 | 0.0 | 0.00 | 0.71 | 0.13 | 87 | 1013.4 |
| 20260507024922 | 16 | 225 | 0.0 | 0.0 | 0.00 | 0.71 | 0.13 | 87 | 1013.4 |
| 20260507024542 | 16 | 225 | 0.0 | 0.0 | 0.10 | 0.71 | 0.13 | 87 | 1013.4 |
| 20260507023852 | 16 | 225 | 0.0 | 0.0 | 0.10 | 0.71 | 0.13 | 86 | 1013.3 |
| 20260507023336 | 16 | 225 | 0.0 | 0.0 | 0.10 | 0.71 | 0.13 | 86 | 1013.3 |
| 20260507022456 | 16 | 225 | 0.0 | 0.0 | 0.20 | 0.71 | 0.13 | 86 | 1013.2 |
| 20260507022021 | 16 | 225 | 0.0 | 0.0 | 0.41 | 0.71 | 0.13 | 86 | 1013.1 |
| 20260507014844 | 17 | 225 | 0.0 | 0.0 | 0.51 | 0.71 | 0.13 | 84 | 1013.4 |
| 20260507010845 | 17 | 223 | 3.2 | 6.4 | 0.10 | 0.30 | 0.03 | 78 | 1013.1 |
| 20260507010330 | 17 | 219 | 3.2 | 11.3 | 0.00 | 0.20 | 0.00 | 77 | 1013.1 |
| 20260507005833 | 17 | 217 | 3.2 | 11.3 | 0.00 | 0.30 | 0.00 | 76 | 1013.2 |
| 20260507005339 | 18 | 220 | 3.2 | 9.7 | 0.00 | 0.30 | 0.00 | 75 | 1013.2 |
| 20260507004828 | 18 | 206 | 3.2 | 9.7 | 0.00 | 0.30 | 0.00 | 75 | 1013.1 |
| 20260507004338 | 18 | 192 | 3.2 | 9.7 | 0.00 | 0.30 | 0.00 | 75 | 1013.1 |
| 20260507003827 | 18 | 201 | 3.2 | 6.4 | 0.00 | 0.30 | 0.00 | 74 | 1013.1 |
| 20260507003323 | 18 | 192 | 1.6 | 6.4 | 0.00 | 0.30 | 0.00 | 74 | 1013.1 |
| 20260507002852 | 18 | 209 | 3.2 | 6.4 | 0.00 | 0.30 | 0.00 | 74 | 1013.1 |
| 20260507002322 | 18 | 207 | 3.2 | 8.0 | 0.00 | 0.30 | 0.00 | 74 | 1013.1 |
| 20260507001853 | 18 | 202 | 3.2 | 11.3 | 0.00 | 0.30 | 0.00 | 74 | 1013.1 |
| 20260507001323 | 18 | 194 | 3.2 | 9.7 | 0.00 | 0.30 | 0.00 | 73 | 1013.1 |
| 20260507000825 | 18 | 198 | 4.8 | 11.3 | 0.00 | 0.30 | 0.00 | 73 | 1013.1 |
| 20260507000336 | 18 | 192 | 4.8 | 11.3 | 0.00 | 0.30 | 0.00 | 73 | 1013.3 |
| 20260506235824 | 18 | 202 | 4.8 | 11.3 | 0.00 | 0.30 | 0.00 | 72 | 1013.3 |
| 20260506235335 | 18 | 208 | 3.2 | 9.7 | 0.00 | 0.30 | 0.00 | 72 | 1013.4 |
| 20260506234825 | 18 | 216 | 4.8 | 9.7 | 0.00 | 0.30 | 0.00 | 72 | 1013.4 |
| 20260506234339 | 18 | 203 | 1.6 | 6.4 | 0.00 | 0.30 | 0.00 | 71 | 1013.3 |
| 20260506233827 | 18 | 191 | 1.6 | 4.8 | 0.00 | 0.30 | 0.00 | 71 | 1013.4 |
| 20260506233337 | 18 | 180 | 1.6 | 4.8 | 0.00 | 0.30 | 0.00 | 71 | 1013.4 |
| 20260506232825 | 18 | 178 | 0.0 | 4.8 | 0.00 | 0.30 | 0.00 | 71 | 1013.4 |
| 20260506232337 | 18 | 179 | 3.2 | 8.0 | 0.00 | 0.30 | 0.00 | 70 | 1013.4 |
| 20260506231827 | 18 | 192 | 3.2 | 8.0 | 0.00 | 0.30 | 0.00 | 70 | 1013.4 |
| 20260506231337 | 18 | 215 | 3.2 | 9.7 | 0.00 | 0.30 | 0.00 | 70 | 1013.4 |
| 20260506230828 | 18 | 230 | 3.2 | 9.7 | 0.00 | 0.30 | 0.00 | 70 | 1013.4 |
| 20260506230323 | 18 | 259 | 1.6 | 4.8 | 0.00 | 0.30 | 0.00 | 70 | 1013.4 |
| 20260506225833 | 18 | 227 | 1.6 | 6.4 | 0.00 | 0.51 | 0.00 | 70 | 1013.4 |
| 20260506225342 | 18 | 230 | 1.6 | 6.4 | 0.00 | 0.51 | 0.00 | 70 | 1013.4 |
| 20260506224829 | 18 | 203 | 1.6 | 6.4 | 0.00 | 0.51 | 0.00 | 70 | 1013.4 |
| 20260506224338 | 18 | 198 | 3.2 | 6.4 | 0.00 | 0.51 | 0.00 | 69 | 1013.4 |
| 20260506223828 | 18 | 197 | 0.0 | 3.2 | 0.00 | 0.51 | 0.00 | 69 | 1013.4 |
| 20260506223339 | 18 | 198 | 0.0 | 4.8 | 0.00 | 0.51 | 0.00 | 68 | 1013.5 |
| 20260506222830 | 19 | 204 | 1.6 | 4.8 | 0.00 | 0.51 | 0.00 | 67 | 1013.5 |
| 20260506222400 | 19 | 205 | 1.6 | 4.8 | 0.00 | 0.51 | 0.00 | 67 | 1013.5 |
| 20260506221830 | 19 | 232 | 3.2 | 6.4 | 0.00 | 0.51 | 0.00 | 67 | 1013.6 |
| 20260506221324 | 19 | 225 | 3.2 | 9.7 | 0.00 | 0.51 | 0.00 | 66 | 1013.5 |
| 20260506220834 | 19 | 213 | 3.2 | 12.9 | 0.00 | 0.51 | 0.00 | 66 | 1013.6 |
| 20260506220332 | 19 | 230 | 4.8 | 12.9 | 0.00 | 0.51 | 0.00 | 67 | 1013.6 |
| 20260506215841 | 19 | 219 | 3.2 | 12.9 | 0.00 | 0.99 | 0.13 | 67 | 1013.5 |
| 20260506215325 | 19 | 211 | 4.8 | 12.9 | 0.00 | 0.99 | 0.13 | 66 | 1013.5 |
| 20260506214832 | 19 | 235 | 4.8 | 11.3 | 0.00 | 0.99 | 0.13 | 66 | 1013.7 |
| 20260506214338 | 19 | 259 | 4.8 | 11.3 | 0.00 | 0.99 | 0.13 | 66 | 1013.6 |
| 20260506213840 | 19 | 219 | 4.8 | 14.5 | 0.00 | 0.99 | 0.13 | 66 | 1013.5 |
| 20260506213330 | 19 | 202 | 4.8 | 12.9 | 0.00 | 0.99 | 0.13 | 66 | 1013.5 |
| 20260506212841 | 19 | 215 | 4.8 | 11.3 | 0.00 | 0.99 | 0.13 | 66 | 1013.5 |
| 20260506212355 | 19 | 217 | 4.8 | 14.5 | 0.00 | 0.99 | 0.13 | 66 | 1013.5 |
| 20260506211838 | 19 | 214 | 4.8 | 14.5 | 0.00 | 0.99 | 0.13 | 66 | 1013.5 |
| 20260506211323 | 19 | 203 | 4.8 | 16.1 | 0.00 | 0.99 | 0.13 | 65 | 1013.5 |
| 20260506210831 | 19 | 216 | 6.4 | 20.9 | 0.00 | 0.99 | 0.13 | 65 | 1013.5 |
| 20260506210336 | 19 | 229 | 6.4 | 20.9 | 0.00 | 0.99 | 0.13 | 65 | 1013.4 |
| 20260506205825 | 19 | 221 | 6.4 | 20.9 | 0.00 | 2.11 | 0.13 | 65 | 1013.3 |
| 20260506205326 | 19 | 230 | 6.4 | 29.0 | 0.00 | 2.11 | 0.13 | 65 | 1013.3 |
| 20260506204826 | 19 | 231 | 9.7 | 29.0 | 0.00 | 2.11 | 0.13 | 65 | 1013.4 |
| 20260506204334 | 19 | 216 | 8.0 | 22.5 | 0.00 | 2.11 | 0.13 | 65 | 1013.4 |
| 20260506203828 | 19 | 263 | 8.0 | 22.5 | 0.00 | 2.11 | 0.13 | 65 | 1013.3 |
| 20260506203409 | 19 | 196 | 8.0 | 30.6 | 0.00 | 2.11 | 0.13 | 65 | 1013.2 |
| 20260506202824 | 19 | 202 | 8.0 | 30.6 | 0.00 | 2.11 | 0.13 | 65 | 1013.1 |
| 20260506202351 | 19 | 212 | 9.7 | 22.5 | 0.00 | 2.11 | 0.13 | 66 | 1013.0 |
| 20260506201858 | 19 | 219 | 6.4 | 17.7 | 0.00 | 2.11 | 0.13 | 66 | 1013.0 |
| 20260506201329 | 19 | 194 | 6.4 | 16.1 | 0.00 | 2.11 | 0.13 | 66 | 1013.0 |
| 20260506200837 | 20 | 227 | 8.0 | 14.5 | 0.00 | 2.11 | 0.13 | 66 | 1013.0 |
| 20260506200326 | 20 | 204 | 3.2 | 16.1 | 0.00 | 2.11 | 0.13 | 66 | 1013.0 |
| 20260506195837 | 20 | 211 | 4.8 | 16.1 | 0.00 | 3.00 | 0.13 | 65 | 1013.1 |
| 20260506195347 | 20 | 212 | 4.8 | 16.1 | 0.00 | 3.00 | 0.13 | 65 | 1013.0 |
| 20260506194838 | 20 | 193 | 8.0 | 14.5 | 0.00 | 3.00 | 0.13 | 65 | 1013.0 |
| 20260506194340 | 20 | 213 | 3.2 | 16.1 | 0.00 | 3.00 | 0.13 | 65 | 1012.8 |
| 20260506193835 | 20 | 186 | 4.8 | 16.1 | 0.00 | 3.00 | 0.13 | 66 | 1012.7 |
| 20260506193341 | 20 | 209 | 4.8 | 16.1 | 0.00 | 3.00 | 0.13 | 66 | 1012.7 |
| 20260506192832 | 20 | 199 | 6.4 | 17.7 | 0.00 | 3.00 | 0.13 | 66 | 1012.6 |
| 20260506192340 | 20 | 209 | 8.0 | 17.7 | 0.00 | 3.00 | 0.13 | 66 | 1012.6 |
| 20260506191841 | 20 | 187 | 6.4 | 16.1 | 0.00 | 3.00 | 0.13 | 65 | 1012.5 |
| 20260506191322 | 20 | 208 | 4.8 | 16.1 | 0.00 | 3.00 | 0.13 | 65 | 1012.4 |
| 20260506190827 | 20 | 223 | 6.4 | 17.7 | 0.00 | 3.00 | 0.13 | 65 | 1012.4 |
| 20260506190326 | 20 | 213 | 8.0 | 19.3 | 0.00 | 3.00 | 0.13 | 65 | 1012.3 |
| 20260506185835 | 20 | 192 | 9.7 | 19.3 | 0.00 | 3.99 | 0.13 | 65 | 1012.1 |
| 20260506185324 | 20 | 193 | 4.8 | 16.1 | 0.00 | 3.99 | 0.13 | 65 | 1012.1 |
| 20260506184832 | 20 | 202 | 6.4 | 14.5 | 0.00 | 3.99 | 0.13 | 64 | 1011.9 |
| 20260506184340 | 20 | 192 | 8.0 | 17.7 | 0.00 | 3.99 | 0.13 | 64 | 1011.9 |
| 20260506183842 | 20 | 185 | 8.0 | 17.7 | 0.00 | 3.99 | 0.13 | 63 | 1011.8 |
| 20260506183329 | 20 | 195 | 4.8 | 16.1 | 0.00 | 3.99 | 0.13 | 63 | 1011.8 |
| 20260506182841 | 20 | 203 | 11.3 | 16.1 | 0.00 | 3.99 | 0.13 | 63 | 1011.8 |
| 20260506182342 | 20 | 185 | 8.0 | 14.5 | 0.00 | 3.99 | 0.13 | 63 | 1011.7 |
| 20260506181829 | 20 | 173 | 4.8 | 14.5 | 0.00 | 3.99 | 0.13 | 63 | 1011.7 |
| 20260506181340 | 20 | 182 | 6.4 | 17.7 | 0.00 | 3.99 | 0.13 | 62 | 1011.6 |
| 20260506180337 | 20 | 169 | 8.0 | 17.7 | 0.00 | 3.99 | 0.13 | 61 | 1011.5 |
| 20260506175822 | 21 | 188 | 6.4 | 20.9 | 0.00 | 5.41 | 0.13 | 61 | 1011.4 |
| 20260506175333 | 21 | 166 | 6.4 | 27.4 | 0.00 | 5.41 | 0.13 | 61 | 1011.3 |
| 20260506174837 | 21 | 191 | 8.0 | 27.4 | 0.00 | 5.41 | 0.13 | 61 | 1011.3 |
| 20260506174331 | 21 | 217 | 11.3 | 24.1 | 0.00 | 5.41 | 0.13 | 60 | 1011.3 |
| 20260506173839 | 21 | 186 | 9.7 | 19.3 | 0.00 | 5.41 | 0.13 | 60 | 1011.3 |
| 20260506173347 | 21 | 156 | 6.4 | 19.3 | 0.00 | 5.41 | 0.13 | 60 | 1011.2 |
| 20260506172853 | 21 | 188 | 8.0 | 24.1 | 0.00 | 5.41 | 0.13 | 60 | 1011.2 |
| 20260506172358 | 21 | 213 | 11.3 | 24.1 | 0.00 | 5.41 | 0.13 | 60 | 1011.1 |
| 20260506171354 | 21 | 178 | 9.7 | 17.7 | 0.00 | 5.41 | 0.13 | 59 | 1011.0 |
| 20260506170822 | 21 | 177 | 8.0 | 20.9 | 0.00 | 5.41 | 0.13 | 59 | 1011.0 |
| 20260506170333 | 21 | 178 | 9.7 | 20.9 | 0.00 | 5.41 | 0.13 | 59 | 1011.1 |
| 20260506165854 | 21 | 194 | 6.4 | 16.1 | 0.00 | 5.51 | 0.13 | 58 | 1011.1 |
| 20260506165321 | 21 | 200 | 4.8 | 16.1 | 0.00 | 5.51 | 0.13 | 58 | 1011.3 |
| 20260506164831 | 21 | 162 | 8.0 | 16.1 | 0.00 | 5.51 | 0.13 | 57 | 1011.2 |
| 20260506164325 | 21 | 194 | 4.8 | 17.7 | 0.00 | 5.51 | 0.13 | 58 | 1011.2 |
| 20260506163833 | 22 | 192 | 9.7 | 17.7 | 0.00 | 5.51 | 0.13 | 57 | 1011.2 |
| 20260506163323 | 22 | 201 | 6.4 | 17.7 | 0.00 | 5.51 | 0.13 | 57 | 1011.1 |
| 20260506162831 | 22 | 167 | 6.4 | 24.1 | 0.00 | 5.51 | 0.13 | 56 | 1011.1 |
| 20260506162338 | 22 | 207 | 4.8 | 24.1 | 0.00 | 5.51 | 0.13 | 56 | 1011.2 |
| 20260506161828 | 22 | 189 | 9.7 | 20.9 | 0.00 | 5.51 | 0.13 | 55 | 1011.1 |
| 20260506161337 | 22 | 183 | 8.0 | 20.9 | 0.00 | 5.51 | 0.13 | 55 | 1011.2 |
| 20260506160826 | 22 | 160 | 8.0 | 19.3 | 0.00 | 5.51 | 0.13 | 54 | 1011.2 |
| 20260506160336 | 22 | 188 | 11.3 | 27.4 | 0.00 | 5.51 | 0.13 | 54 | 1011.3 |
| 20260506155840 | 23 | 170 | 12.9 | 24.1 | 0.00 | 5.51 | 0.13 | 53 | 1011.3 |
| 20260506155334 | 23 | 200 | 9.7 | 27.4 | 0.00 | 5.51 | 0.13 | 53 | 1011.3 |
| 20260506154829 | 23 | 131 | 9.7 | 22.5 | 0.00 | 5.51 | 0.13 | 53 | 1011.4 |
| 20260506154336 | 23 | 184 | 9.7 | 22.5 | 0.00 | 5.51 | 0.13 | 54 | 1011.3 |
| 20260506153827 | 23 | 148 | 4.8 | 19.3 | 0.00 | 5.51 | 0.13 | 55 | 1011.3 |
| 20260506153333 | 22 | 163 | 6.4 | 19.3 | 0.00 | 5.51 | 0.13 | 55 | 1011.2 |
| 20260506152838 | 22 | 200 | 9.7 | 20.9 | 0.00 | 5.51 | 0.13 | 54 | 1011.2 |
| 20260506152326 | 23 | 159 | 4.8 | 20.9 | 0.00 | 5.51 | 0.13 | 54 | 1011.3 |
| 20260506151854 | 23 | 167 | 6.4 | 25.7 | 0.00 | 5.51 | 0.13 | 54 | 1011.3 |
| 20260506151402 | 23 | 191 | 6.4 | 27.4 | 0.00 | 5.51 | 0.13 | 53 | 1011.2 |
| 20260506150827 | 23 | 195 | 11.3 | 27.4 | 0.00 | 5.51 | 0.13 | 52 | 1011.2 |
| 20260506150338 | 23 | 218 | 9.7 | 25.7 | 0.00 | 5.51 | 0.13 | 52 | 1011.1 |
| 20260506145847 | 23 | 192 | 9.7 | 25.7 | 0.00 | 5.51 | 0.13 | 51 | 1011.1 |
| 20260506145339 | 23 | 215 | 8.0 | 29.0 | 0.00 | 5.51 | 0.13 | 51 | 1011.0 |
| 20260506144847 | 23 | 155 | 9.7 | 27.4 | 0.00 | 5.51 | 0.13 | 50 | 1010.8 |
| 20260506144331 | 23 | 207 | 11.3 | 27.4 | 0.00 | 5.51 | 0.13 | 50 | 1010.9 |
| 20260506143832 | 23 | 190 | 12.9 | 30.6 | 0.00 | 5.51 | 0.13 | 50 | 1011.1 |
| 20260506143335 | 23 | 204 | 16.1 | 35.4 | 0.00 | 5.51 | 0.13 | 50 | 1011.2 |
| 20260506142824 | 23 | 199 | 14.5 | 35.4 | 0.00 | 5.51 | 0.13 | 49 | 1011.3 |
| 20260506142345 | 23 | 236 | 11.3 | 29.0 | 0.00 | 5.51 | 0.13 | 51 | 1011.3 |
| 20260506141830 | 23 | 214 | 11.3 | 38.6 | 0.00 | 5.51 | 0.13 | 51 | 1011.4 |
| 20260506141341 | 23 | 229 | 11.3 | 38.6 | 0.00 | 5.51 | 0.13 | 51 | 1011.4 |
| 20260506140902 | 23 | 250 | 12.9 | 30.6 | 0.00 | 5.51 | 0.13 | 51 | 1011.4 |
| 20260506140341 | 23 | 179 | 9.7 | 24.1 | 0.00 | 5.51 | 0.13 | 51 | 1011.6 |
| 20260506135848 | 23 | 240 | 9.7 | 19.3 | 0.00 | 5.51 | 0.13 | 52 | 1011.5 |
| 20260506135339 | 23 | 215 | 6.4 | 19.3 | 0.00 | 5.51 | 0.13 | 52 | 1011.7 |
| 20260506134829 | 23 | 226 | 4.8 | 27.4 | 0.00 | 5.51 | 0.13 | 52 | 1011.7 |
| 20260506134329 | 23 | 199 | 4.8 | 20.9 | 0.00 | 5.51 | 0.13 | 51 | 1011.8 |
| 20260506133821 | 23 | 180 | 9.7 | 20.9 | 0.00 | 5.51 | 0.13 | 50 | 1011.8 |
| 20260506133328 | 23 | 252 | 4.8 | 19.3 | 0.00 | 5.51 | 0.13 | 51 | 1011.9 |
| 20260506132835 | 23 | 193 | 8.0 | 16.1 | 0.00 | 5.51 | 0.13 | 50 | 1012.0 |
| 20260506132334 | 23 | 244 | 6.4 | 16.1 | 0.00 | 5.51 | 0.13 | 51 | 1012.1 |
| 20260506131900 | 23 | 225 | 6.4 | 19.3 | 0.00 | 5.51 | 0.13 | 51 | 1012.2 |
| 20260506131355 | 23 | 238 | 8.0 | 19.3 | 0.00 | 5.51 | 0.13 | 52 | 1012.2 |
| 20260506125833 | 22 | 198 | 1.6 | 8.0 | 0.00 | 5.51 | 0.13 | 56 | 1012.1 |
| 20260506125323 | 22 | 206 | 3.2 | 11.3 | 0.00 | 5.51 | 0.13 | 58 | 1012.2 |
| 20260506124847 | 22 | 235 | 4.8 | 11.3 | 0.00 | 5.51 | 0.13 | 57 | 1012.3 |
| 20260506124338 | 22 | 192 | 4.8 | 11.3 | 0.00 | 5.51 | 0.13 | 58 | 1012.3 |
| 20260506123829 | 22 | 194 | 3.2 | 11.3 | 0.00 | 5.51 | 0.13 | 58 | 1012.3 |
| 20260506123339 | 22 | 188 | 3.2 | 8.0 | 0.00 | 5.51 | 0.13 | 59 | 1012.3 |
| 20260506122852 | 22 | 174 | 3.2 | 9.7 | 0.00 | 5.51 | 0.13 | 60 | 1012.2 |
| 20260506122337 | 22 | 190 | 3.2 | 9.7 | 0.00 | 5.51 | 0.13 | 61 | 1012.2 |
| 20260506121828 | 22 | 182 | 3.2 | 9.7 | 0.00 | 5.51 | 0.13 | 61 | 1012.2 |
| 20260506121338 | 22 | 167 | 1.6 | 6.4 | 0.00 | 5.51 | 0.13 | 61 | 1012.1 |
| 20260506120832 | 22 | 174 | 3.2 | 4.8 | 0.00 | 5.51 | 0.13 | 60 | 1012.2 |
| 20260506120343 | 22 | 159 | 1.6 | 4.8 | 0.00 | 5.51 | 0.13 | 60 | 1012.2 |
| 20260506115834 | 22 | 250 | 0.0 | 3.2 | 0.00 | 5.51 | 0.13 | 59 | 1012.3 |
| 20260506115324 | 22 | 250 | 1.6 | 4.8 | 0.00 | 5.51 | 0.13 | 59 | 1012.4 |
| 20260506114855 | 22 | 252 | 1.6 | 4.8 | 0.00 | 5.51 | 0.13 | 59 | 1012.5 |
| 20260506114321 | 22 | 255 | 3.2 | 4.8 | 0.00 | 5.51 | 0.13 | 59 | 1012.5 |
| 20260506113905 | 22 | 235 | 1.6 | 4.8 | 0.00 | 5.51 | 0.13 | 59 | 1012.5 |
| 20260506113320 | 22 | 235 | 1.6 | 4.8 | 0.00 | 5.51 | 0.13 | 59 | 1012.5 |
| 20260506112824 | 22 | 257 | 1.6 | 4.8 | 0.00 | 5.51 | 0.13 | 58 | 1012.5 |
| 20260506112341 | 22 | 244 | 3.2 | 8.0 | 0.00 | 5.51 | 0.13 | 58 | 1012.6 |
| 20260506111827 | 22 | 211 | 1.6 | 8.0 | 0.00 | 5.51 | 0.13 | 57 | 1012.6 |
| 20260506111337 | 22 | 237 | 3.2 | 8.0 | 0.00 | 5.51 | 0.13 | 57 | 1012.6 |
| 20260506110912 | 22 | 213 | 3.2 | 9.7 | 0.00 | 5.51 | 0.13 | 58 | 1012.6 |
| 20260506110342 | 22 | 153 | 3.2 | 9.7 | 0.00 | 5.51 | 0.13 | 56 | 1012.6 |
| 20260506105910 | 22 | 207 | 4.8 | 9.7 | 0.00 | 5.51 | 0.13 | 57 | 1012.6 |
| 20260506105331 | 22 | 221 | 1.6 | 9.7 | 0.00 | 5.51 | 0.13 | 58 | 1012.6 |
| 20260506104840 | 22 | 212 | 3.2 | 11.3 | 0.00 | 5.51 | 0.13 | 58 | 1012.6 |
| 20260506103838 | 22 | 213 | 4.8 | 12.9 | 0.00 | 5.51 | 0.13 | 58 | 1012.6 |
| 20260506103333 | 22 | 196 | 4.8 | 11.3 | 0.00 | 5.51 | 0.13 | 59 | 1012.6 |
| 20260506102821 | 22 | 211 | 3.2 | 11.3 | 0.00 | 5.51 | 0.13 | 60 | 1012.7 |
| 20260506102325 | 22 | 242 | 4.8 | 14.5 | 0.00 | 5.51 | 0.13 | 59 | 1012.7 |
| 20260506101834 | 22 | 197 | 8.0 | 14.5 | 0.00 | 5.51 | 0.13 | 58 | 1012.7 |
| 20260506101338 | 21 | 173 | 4.8 | 12.9 | 0.00 | 5.51 | 0.13 | 59 | 1012.7 |
| 20260506100838 | 21 | 221 | 3.2 | 12.9 | 0.00 | 5.51 | 0.13 | 60 | 1012.7 |
| 20260506100329 | 21 | 215 | 3.2 | 12.9 | 0.00 | 5.51 | 0.13 | 60 | 1012.7 |
| 20260506095322 | 21 | 167 | 6.4 | 11.3 | 0.00 | 5.51 | 0.13 | 63 | 1013.0 |
| 20260506094846 | 21 | 178 | 3.2 | 11.3 | 0.00 | 5.51 | 0.13 | 62 | 1012.9 |
| 20260506094346 | 20 | 236 | 6.4 | 11.3 | 0.00 | 5.51 | 0.13 | 63 | 1013.0 |
| 20260506093842 | 20 | 217 | 4.8 | 11.3 | 0.00 | 5.51 | 0.13 | 64 | 1012.9 |
| 20260506093401 | 20 | 224 | 3.2 | 11.3 | 0.00 | 5.51 | 0.13 | 66 | 1013.0 |
| 20260506092822 | 20 | 218 | 3.2 | 6.4 | 0.00 | 5.51 | 0.13 | 67 | 1013.0 |
| 20260506092329 | 20 | 190 | 3.2 | 6.4 | 0.00 | 5.51 | 0.13 | 68 | 1013.0 |
| 20260506091837 | 19 | 190 | 3.2 | 6.4 | 0.00 | 5.51 | 0.13 | 68 | 1012.9 |
| 20260506091327 | 19 | 210 | 1.6 | 8.0 | 0.00 | 5.51 | 0.13 | 68 | 1012.9 |
| 20260506090836 | 19 | 211 | 1.6 | 9.7 | 0.00 | 5.51 | 0.13 | 69 | 1013.0 |
| 20260506090323 | 19 | 217 | 3.2 | 9.7 | 0.00 | 5.51 | 0.13 | 71 | 1012.9 |
| 20260506085832 | 19 | 32 | 1.6 | 6.4 | 0.00 | 5.59 | 0.13 | 79 | 1013.0 |
| 20260506085340 | 19 | 32 | 1.6 | 6.4 | 0.00 | 5.59 | 0.13 | 80 | 1012.9 |
| 20260506084831 | 18 | 42 | 1.6 | 6.4 | 0.00 | 5.59 | 0.13 | 81 | 1012.9 |
| 20260506084322 | 18 | 39 | 3.2 | 6.4 | 0.00 | 5.59 | 0.13 | 81 | 1012.9 |
| 20260506083833 | 18 | 49 | 1.6 | 6.4 | 0.00 | 5.59 | 0.13 | 81 | 1012.9 |